{"data":{"norad_id":39012,"intl_designator":"2012-066B","name":"YAOGAN-16 01B","alt_names":[],"object_type":"PAYLOAD","status":"ACTIVE","operator":null,"country":"PRC","launch_date":"2012-11-25","launch_site_code":"JSC","launch_vehicle":null,"mission":null,"orbit_class":"UNKNOWN","rcs_meters":2.692,"size_class":null,"mass_kg":null,"dimensions":null,"purposes":[],"wikipedia_slug":null,"has_3d_model":false,"image_url":null,"decayed_at":null,"tle_current":{"epoch":"2026-09-19T22:38:23.259264Z","epoch_age_seconds":81702,"freshness":"FRESH","line1":"1 39012U 12066B   26262.94332476 -.00000082  00000+0  80234-5 0  9998","line2":"2 39012  63.3535  45.2636 0443237  27.6931 334.6956 13.45522389678851","mean_motion":13.45522389,"eccentricity":0.0443237,"inclination_deg":63.3535,"raan_deg":45.2636,"arg_perigee_deg":27.6931,"mean_anomaly_deg":334.6956,"bstar":8.0234e-6,"rev_number":67885,"period_min":107.02163054085,"perigee_km":757.81694069338,"apogee_km":1419.7395638266,"semimajor_km":7466.91525226,"source":"CELESTRAK","updated_at":"2026-09-20T09:00:13.896116Z"}}}